EW3871 Weather Reports


time (UTC)temp
C
wind
direction
speed
KPH
gust
KPH
rain 1hr
cm
rain 24hr
cm
rain mn
cm
humidity
%
barometer
mb
20220629030034 16 98 8.0 12.9 0.00 0.00 0.00 74 1014.5
20220629024531 16 77 6.4 12.9 0.00 0.00 0.00 72 1014.7
20220629023029 16 96 6.4 12.9 0.00 0.00 0.00 72 1014.8
20220629021528 16 66 6.4 11.3 0.00 0.00 0.00 72 1014.7
20220629020027 16 86 6.4 11.3 0.00 0.00 0.00 71 1014.7
20220629014533 16 89 4.8 8.0 0.00 0.00 0.00 70 1014.9
20220629013026 16 107 4.8 8.0 0.00 0.00 0.00 70 1015.0
20220629011524 16 98 4.8 9.7 0.00 0.00 0.00 70 1015.1
20220629010024 16 69 4.8 8.0 0.00 0.00 0.00 71 1015.2
20220629004524 16 117 4.8 9.7 0.00 0.00 0.00 73 1015.3
20220629003018 17 75 4.8 8.0 0.00 0.00 0.00 71 1015.4
20220629001519 17 90 3.2 6.4 0.00 0.00 0.00 73 1015.4
20220629000019 17 72 3.2 8.0 0.00 0.00 0.00 70 1015.3
20220628234515 17 56 4.8 8.0 0.00 0.00 0.00 70 1015.4
20220628233014 17 70 3.2 6.4 0.00 0.00 0.00 71 1015.4
20220628231513 17 61 3.2 6.4 0.00 0.00 0.00 72 1015.3
20220628230010 18 96 0.0 9.7 0.00 0.00 0.00 71 1015.2
20220628224516 18 53 1.6 8.0 0.00 0.00 0.00 70 1015.2
20220628223005 19 73 3.2 8.0 0.00 0.00 0.00 66 1015.2
20220628221505 19 55 6.4 9.7 0.00 0.00 0.00 65 1015.2
20220628220059 20 53 1.6 8.0 0.00 0.00 0.00 67 1015.0
20220628214558 20 79 0.0 6.4 0.00 0.00 0.00 65 1014.9
20220628213100 20 138 1.6 9.7 0.00 0.00 0.00 60 1014.8
20220628211558 20 122 3.2 9.7 0.00 0.00 0.00 60 1014.8
20220628210057 22 122 4.8 11.3 0.00 0.00 0.00 56 1014.4
20220628204556 22 136 4.8 11.3 0.00 0.00 0.00 50 1014.2
20220628203056 22 99 8.0 16.1 0.00 0.00 0.00 52 1014.0
20220628201555 23 113 0.0 4.8 0.00 0.00 0.00 53 1013.8
20220628200057 24 135 0.0 6.4 0.00 0.00 0.00 48 1013.7
20220628194554 25 148 1.6 8.0 0.00 0.10 0.00 48 1013.5
20220628193055 25 131 3.2 8.0 0.00 0.10 0.00 45 1013.5
20220628191554 27 107 0.0 1.6 0.00 0.10 0.00 48 1013.5
20220628190054 28 232 0.0 3.2 0.00 0.10 0.00 33 1013.3
20220628184552 28 235 0.0 3.2 0.00 0.38 0.00 34 1013.3
20220628183054 28 278 3.2 6.4 0.00 0.38 0.00 33 1013.4
20220628181551 28 283 4.8 8.0 0.00 0.38 0.00 32 1013.3
20220628180053 28 279 4.8 9.7 0.00 0.38 0.00 33 1013.4
20220628174605 28 282 8.0 16.1 0.00 0.43 0.00 31 1013.3
20220628173049 28 285 8.0 16.1 0.00 0.43 0.00 34 1013.4
20220628171548 28 278 12.9 20.9 0.00 0.43 0.00 33 1013.5
20220628170044 28 267 11.3 19.3 0.00 0.43 0.00 34 1013.5
20220628164546 28 285 9.7 17.7 0.00 0.43 0.00 35 1013.6
20220628163039 28 279 9.7 19.3 0.00 0.43 0.00 36 1013.8
20220628161539 28 287 12.9 20.9 0.00 0.43 0.00 38 1013.9
20220628160034 28 251 12.9 24.1 0.00 0.43 0.00 37 1014.2
20220628154530 27 156 9.7 20.9 0.00 0.53 0.00 41 1014.4
20220628153027 27 283 12.9 24.1 0.00 0.53 0.00 42 1014.6
20220628151531 27 278 16.1 25.7 0.00 0.53 0.00 43 1014.8
20220628150026 27 276 9.7 19.3 0.00 0.53 0.00 43 1014.9
20220628144519 26 278 12.9 27.4 0.00 0.53 0.00 43 1015.1
20220628143018 26 280 16.1 27.4 0.00 0.53 0.00 43 1015.3
20220628141515 26 290 16.1 25.7 0.00 0.53 0.00 44 1015.6
20220628140011 26 274 9.7 17.7 0.00 0.53 0.00 47 1015.8
20220628134510 25 248 14.5 22.5 0.00 0.53 0.00 50 1015.9
20220628133007 25 276 6.4 16.1 0.00 0.53 0.00 53 1016.1
20220628131504 25 272 4.8 16.1 0.00 0.53 0.00 52 1016.2
20220628130101 24 281 6.4 19.3 0.00 0.53 0.00 55 1016.5
20220628124600 24 274 6.4 16.1 0.00 0.53 0.00 58 1016.6
20220628123056 23 269 6.4 17.7 0.00 0.53 0.00 58 1016.9
20220628121553 23 231 11.3 20.9 0.00 0.53 0.00 61 1017.2
20220628120047 22 283 14.5 22.5 0.00 0.53 0.00 60 1017.5
20220628114543 22 286 16.1 22.5 0.00 0.53 0.00 61 1017.8
20220628113039 22 285 12.9 22.5 0.00 0.53 0.00 63 1018.0
20220628111553 21 313 16.1 25.7 0.00 0.53 0.00 66 1018.2
20220628110036 21 268 11.3 19.3 0.00 0.53 0.00 65 1018.3
20220628104532 21 275 8.0 19.3 0.00 0.53 0.00 69 1018.4
20220628103031 20 285 9.7 16.1 0.00 0.53 0.00 67 1018.5
20220628101532 20 281 8.0 14.5 0.00 0.53 0.00 70 1018.7
20220628100025 20 223 8.0 16.1 0.00 0.53 0.00 72 1018.7
20220628094525 18 274 11.3 19.3 0.00 0.53 0.00 73 1018.8
20220628093019 18 270 4.8 16.1 0.00 0.53 0.00 75 1018.8
20220628091518 17 251 0.0 17.7 0.00 0.53 0.00 76 1019.0
20220628090017 18 290 6.4 11.3 0.00 0.53 0.00 77 1019.1
20220628084517 17 281 8.0 16.1 0.00 0.53 0.00 78 1019.2
20220628083017 16 224 4.8 14.5 0.00 0.53 0.00 80 1019.2
20220628081510 16 233 4.8 12.9 0.00 0.53 0.00 79 1019.2
20220628080010 16 302 8.0 14.5 0.00 0.53 0.00 81 1019.3
20220628074509 15 231 6.4 16.1 0.00 0.53 0.00 81 1019.2
20220628073011 15 238 8.0 14.5 0.00 0.53 0.00 83 1019.2
20220628071509 15 282 11.3 17.7 0.00 0.53 0.00 84 1019.3
20220628070005 14 297 11.3 19.3 0.00 0.53 0.00 86 1019.4
20220628064505 14 277 8.0 16.1 0.00 0.53 0.00 87 1019.3
20220628063011 14 268 6.4 14.5 0.00 0.53 0.00 87 1019.1
20220628061504 14 271 4.8 12.9 0.00 0.53 0.00 87 1019.0
20220628060002 14 259 8.0 17.7 0.00 0.53 0.00 87 1018.9
20220628054601 13 274 8.0 0.0 0.00 0.53 0.00 1018.8
20220628053102 -17 0.0 0.0 0.00 0.53 0.00 1018.7
20220628051553 -17 0.0 0.0 0.00 0.53 0.00 1018.5
20220628050102 -17 0.0 0.0 0.00 0.53 0.00 1018.4
20220628044555 -17 0.0 0.0 0.00 0.53 0.00 1018.5
20220628043047 -17 0.0 0.0 0.00 0.53 0.00 1018.3
20220628041535 -17 0.0 0.0 0.00 0.53 0.00 1018.4
20220628040030 -17 0.0 0.0 0.00 0.53 0.00 1018.4
20220628034534 -17 0.0 0.0 0.00 0.53 0.00 1018.3
20220628033026 -17 0.0 0.0 0.00 0.53 0.00 1018.3
20220628031519 15 286 9.7 17.7 0.00 0.53 0.00 91 1018.3